Altus AFB, OK

12:17 PM CDT on April 26, 2017 (GMT -0500)
Altus Air Force Base

Weather History for KLTS - September, 2012

Change the Weather History Date:

Saturday, September 22, 2012

  Actual Average Record
Temperature  
Mean Temperature 78 °F -  
Max Temperature 98 °F 82 °F 98 °F (2012)
Min Temperature 59 °F 58 °F 44 °F (1999)
Cooling Degree Days 13    
Growing Degree Days 28 (Base 50)    
Moisture  
Dew Point 48 °F    
Average Humidity 39    
Maximum Humidity 67    
Minimum Humidity 16    
Precipitation  
Precipitation 0.00 in - - ()
Sea Level Pressure  
Sea Level Pressure 30.00 in    
Wind  
Wind Speed 5 mph (NE)    
Max Wind Speed 16 mph    
Max Gust Speed -    
Visibility 10 miles    
Events      
Averages and records for this station are not official NWS values.
T = Trace of Precipitation, MM = Missing Value Source: NWS Daily Summary

Daily Weather History Graph

Daily Weather History Graph

Search for Another Location

Airport or City:

Trip Planner

Search our weather history database for the weather conditions in past years. The results will help you decide how hot, cold, wet, or windy it might be!

Date:

Astronomy

Sep. 22, 2012 Rise Set
Actual Time 7:25 AM CDT 7:33 PM CDT
Civil Twilight 7:00 AM CDT 7:58 PM CDT
Nautical Twilight 6:30 AM CDT 8:27 PM CDT
Astronomical Twilight 6:01 AM CDT 8:57 PM CDT
Moon 2:30 PM CDT (9/22) No Moon Set
Length of Visible Light 12h 57m
Length of Day
12h 07m
Waxing Crescent, 49% of the Moon is Illuminated
Sep 22
Waxing Crescent
Sep 22
First Quarter
Sep 29
Full
Oct 8
Last Quarter
Oct 15
New

Hourly Weather History & Observations

Time (CDT) Temp. Dew Point Humidity Pressure Visibility Wind Dir Wind Speed Gust Speed Precip Events Conditions
12:55 AM 66.4 °F 48.6 °F 53% 29.91 in 10.0 mi ENE 4.6 mph - N/A   Clear
1:55 AM 66.2 °F 49.6 °F 55% 29.93 in 10.0 mi North 3.5 mph - N/A   Clear
2:55 AM 63.1 °F 49.5 °F 61% 29.95 in 10.0 mi NNE 6.9 mph - N/A   Clear
3:55 AM 62.4 °F 49.6 °F 63% 29.95 in 10.0 mi NNE 5.8 mph - N/A   Clear
4:55 AM 61.2 °F 49.1 °F 65% 29.96 in 10.0 mi NE 8.1 mph - N/A   Clear
5:55 AM 60.8 °F 49.1 °F 65% 29.97 in 10.0 mi NNE 4.6 mph - N/A   Clear
6:55 AM 60.6 °F 48.9 °F 65% 29.99 in 10.0 mi ENE 3.5 mph - N/A   Clear
7:55 AM 59.4 °F 48.6 °F 67% 30.02 in 10.0 mi Calm Calm - N/A   Clear
8:55 AM 66.9 °F 49.5 °F 53% 30.04 in 10.0 mi Calm Calm - N/A   Clear
9:55 AM 73.6 °F 49.1 °F 42% 30.05 in 10.0 mi SE 4.6 mph - N/A   Clear
10:55 AM 81.1 °F 49.1 °F 33% 30.06 in 10.0 mi Variable 3.5 mph - N/A   Clear
11:55 AM 87.1 °F 49.3 °F 27% 30.05 in 10.0 mi Calm Calm - N/A   Clear
12:55 PM 91.9 °F 48.6 °F 23% 30.04 in 10.0 mi Variable 3.5 mph - N/A   Clear
1:55 PM 94.5 °F 48.0 °F 20% 30.02 in 10.0 mi Variable 5.8 mph - N/A   Clear
2:55 PM 96.8 °F 47.5 °F 19% 30.00 in 10.0 mi Calm Calm - N/A   Clear
3:55 PM 97.5 °F 45.0 °F 17% 29.99 in 10.0 mi Calm Calm - N/A   Clear
4:55 PM 95.7 °F 45.0 °F 17% 29.99 in 10.0 mi SSW 4.6 mph - N/A   Clear
5:55 PM 97.0 °F 44.4 °F 16% 29.97 in 10.0 mi SE 5.8 mph - N/A   Clear
6:55 PM 94.3 °F 44.1 °F 18% 29.98 in 10.0 mi SE 5.8 mph - N/A   Clear
7:55 PM 83.5 °F 45.0 °F 26% 29.99 in 10.0 mi NNE 16.1 mph - N/A   Clear
8:55 PM 84.6 °F 49.5 °F 30% 30.02 in 10.0 mi NE 10.4 mph - N/A   Clear
9:55 PM 80.6 °F 47.7 °F 31% 30.04 in 10.0 mi NE 10.4 mph - N/A   Clear
10:55 PM 77.2 °F 45.7 °F 33% 30.05 in 10.0 mi NE 11.5 mph - N/A   Clear
11:55 PM 72.0 °F 45.7 °F 39% 30.06 in 10.0 mi NE 11.5 mph - N/A   Clear